[[{"header":{"parameterUnit":"m.s-1","parameterCategory":1,"la1":30.2991,"la2":30.254,"lo1":-89.0895,"lo2":-89.0444,"dy":0.0017,"dx":0.0017,"nx":28,"ny":28,"refTime":"2024-06-09T03:00:00:Z","depth":0,"parameterNumber":2,"parameterNumberName":"U-component_of_WINDS"},"data":[0,0,0,0,0,0,0,0,0,0,0,0,0,0,0,0,0,0,0,0,0,0,0,0,0,0,0,0,0,0,0,0,0,0,0,0,0,0,0,0,0,0,0,0,0,0,0,0,0,0,0,0,0,0,0,0,0,0,3.4627,3.4629,0,3.4799,3.4801,3.4803,3.4812,3.481,3.4808,3.4806,3.4989,3.4995,3.5002,0,0,0,0,0,0,0,0,0,0,0,0,0,3.4315,3.4321,3.4627,3.4629,3.4631,3.4798,3.4801,3.4803,3.4812,3.481,3.4807,3.4805,3.4987,3.4995,3.5003,0,0,0,0,0,0,0,0,0,0,0,0,0,3.4465,3.4323,3.4627,3.4656,3.466,3.4798,3.4801,3.4804,3.4813,3.481,3.4807,3.4804,3.4984,3.4994,3.5004,3.5127,0,0,3.5035,3.5039,0,0,0,0,0,0,0,0,3.4457,3.4477,3.4649,3.4654,3.4659,3.478,3.4758,3.4912,3.4813,3.4755,3.4806,3.4802,3.4923,3.4938,3.4977,3.5135,3.5143,3.5036,3.5042,3.5046,3.5049,0,0,0,0,0,0,0,3.4446,3.4469,3.4695,3.4652,3.4658,3.4663,3.4681,3.4787,3.4854,3.476,3.4761,3.4781,3.4925,3.4967,3.4981,3.5146,3.5035,3.5044,3.5051,3.5055,3.5417,3.542,0,0,0,0,0,0,3.4429,3.4461,3.469,3.47,3.4548,3.4671,3.4691,3.4745,3.4853,3.4866,3.4783,3.478,3.4951,3.4969,3.4987,3.514,3.5046,3.5056,3.5061,3.5414,3.5418,3.5422,0,0,0,0,0,0,3.4422,3.445,3.4683,3.4581,3.4611,3.4679,3.474,3.475,3.4792,3.487,3.4883,3.4813,3.4949,3.4973,3.5092,3.5147,3.506,3.5069,3.5409,3.5415,3.542,3.5446,0,0,0,0,0,0,3.4413,3.4447,3.4492,3.4582,3.4616,3.4782,3.4743,3.4755,3.4808,3.4806,3.4902,3.4915,3.4949,3.5077,3.5102,3.5159,3.5077,3.5405,3.5412,3.5418,3.5441,3.5451,3.5461,0,0,0,0,0,3.4402,3.4494,3.4494,3.4522,3.4674,3.4785,3.4805,3.484,3.4812,3.486,3.4911,3.4912,3.5136,3.5089,3.5118,3.5178,3.5402,3.541,3.5418,3.5436,3.5449,3.5461,0,0,0,0,0,0,3.4411,3.4506,3.4508,3.463,3.4699,3.4786,3.4847,3.4853,3.4933,3.4929,3.4971,3.4993,3.5111,3.5156,3.5102,3.5304,3.5266,3.528,3.527,3.5284,3.5294,3.5281,3.5086,0,0,0,0,0,3.4427,3.4507,3.4586,3.4687,3.4721,3.4778,3.4828,3.4849,3.4923,3.4953,3.5013,3.5087,3.5175,3.5231,3.5316,3.5447,3.5469,3.5503,3.5513,3.5521,3.5533,3.5609,3.5626,3.5448,3.5448,3.5448,0,0,3.4461,3.4523,3.4571,3.469,3.4746,3.4831,3.4803,3.4893,3.4958,3.4968,3.5084,3.513,3.5216,3.5342,3.54,3.5384,3.5587,3.5531,3.5537,3.5545,3.5619,3.5636,3.565,3.5453,3.5453,3.5452,0,0,3.4567,3.4621,3.4711,3.4768,3.4852,3.489,3.4912,3.4999,3.5029,3.5145,3.5156,3.5234,3.5383,3.5445,3.5495,3.5626,3.5631,3.5653,3.5707,3.578,3.5794,3.5807,3.5856,3.5873,3.5665,3.5665,3.5665,0,3.46,3.4726,3.4758,3.4849,3.4903,3.4913,3.5008,3.5062,3.5171,3.5209,3.5187,3.5376,3.5435,3.5576,3.5608,3.5648,3.5677,3.5643,3.5789,3.5802,3.5814,3.5862,3.588,3.5667,3.5667,3.5666,3.5666,0,3.4763,3.485,3.4914,3.5017,3.5078,3.517,3.5219,3.5277,3.5293,3.5334,3.5454,3.5524,3.5625,3.5659,3.5677,3.5805,3.5792,3.5779,3.5742,3.5833,3.5878,3.5897,3.567,3.5669,3.5669,3.5668,0,0,3.488,3.5,3.5023,3.5071,3.5166,3.5235,3.5329,3.5425,3.5475,3.555,3.5632,3.5759,3.5748,3.5806,3.583,3.5894,3.5996,3.5874,3.5876,3.5896,3.6145,3.6156,3.6176,3.5999,3.6003,3.6006,3.6139,0,3.4999,3.5164,3.5196,3.5341,3.5423,3.5436,3.5518,3.5587,3.5627,3.5706,3.5752,3.5842,3.5819,3.5854,3.5918,3.597,3.6047,3.5961,3.6079,3.6083,3.6059,3.62,3.6211,3.6333,3.6157,3.616,3.6162,0,3.5159,3.5237,3.5389,3.5474,3.551,3.5583,3.5675,3.5748,3.5828,3.5853,3.5918,3.5935,3.6037,3.5993,3.6135,3.6075,3.6126,3.6159,3.6165,3.6179,3.6129,3.622,3.6373,3.6392,3.619,3.6188,3.6186,0,3.5233,3.5375,3.5485,3.5525,3.5627,3.5678,3.5724,3.5799,3.5856,3.5937,3.5974,3.6066,3.6118,3.619,3.6234,3.6197,3.6374,3.6333,3.64,3.64,3.6439,3.6436,3.6604,3.6467,3.6467,3.6467,3.6466,0,3.5363,3.5457,3.552,3.5587,3.5693,3.5731,3.5836,3.5881,3.5948,3.6028,3.6044,3.6118,3.617,3.6253,3.6287,3.6401,3.6424,3.645,3.6458,3.645,3.6447,3.6485,3.6478,3.6471,3.647,3.6469,3.6469,0,3.5464,3.5509,3.5631,3.5716,3.574,3.5815,3.589,3.5958,3.5998,3.6099,3.6125,3.619,3.6288,3.6338,3.646,3.6484,3.6613,3.6615,3.6586,3.659,3.6656,3.665,3.6856,3.6886,3.6727,3.6728,3.6729,0,3.5545,3.5617,3.5711,3.5764,3.5809,3.5895,3.5952,3.5993,3.6052,3.6149,3.6206,3.6304,3.6385,3.6542,3.6603,3.6697,3.6703,3.6769,3.6718,3.6708,3.6708,3.6704,3.6713,3.6779,3.6781,3.6782,3.6783,0,3.5686,3.5705,3.5785,3.5875,3.5942,3.6015,3.6087,3.613,3.6183,3.625,3.6349,3.6412,3.6537,3.6636,3.6735,3.6784,3.6794,3.6798,3.6819,3.6812,3.6793,3.6807,3.6613,3.6794,3.6793,3.6792,3.6791,3.6791,3.5782,3.5847,3.5923,3.6013,3.6071,3.6138,3.6206,3.6255,3.6338,3.6442,3.6461,3.6568,3.6648,3.6781,3.6834,3.692,3.6906,3.6936,3.6944,3.6952,3.6956,3.6777,3.6938,3.6938,3.6937,3.6937,3.6937,0,3.5925,3.5974,3.6057,3.6156,3.6228,3.6227,3.6307,3.6368,3.6461,3.6533,3.6612,3.6728,3.6824,3.6891,3.699,3.7046,3.7053,3.7071,3.7068,3.708,3.6961,3.6934,3.7064,3.7063,3.7063,3.7063,3.7063,3.7063,3.6008,3.6119,3.6148,3.6289,3.6339,3.6441,3.6487,3.6551,3.6609,3.6736,3.6815,3.6858,3.693,3.7033,3.7123,3.714,3.7177,3.7195,3.7213,3.7102,3.7088,3.7076,3.7051,3.7202,3.7202,3.7326,3.7327,3.7327]},{"header":{"parameterUnit":"m.s-1","parameterCategory":1,"la1":30.2991,"la2":30.254,"lo1":-89.0895,"lo2":-89.0444,"dy":0.0017,"dx":0.0017,"nx":28,"ny":28,"refTime":"2024-06-09T03:00:00:Z","depth":0,"parameterNumber":3,"parameterNumberName":"V-component_of_WINDS"},"data":[0,0,0,0,0,0,0,0,0,0,0,0,0,0,0,0,0,0,0,0,0,0,0,0,0,0,0,0,0,0,0,0,0,0,0,0,0,0,0,0,0,0,0,0,0,0,0,0,0,0,0,0,0,0,0,0,0,0,1.6663,1.6664,0,1.6781,1.6782,1.6783,1.6796,1.6794,1.6793,1.6792,1.6912,1.6916,1.692,0,0,0,0,0,0,0,0,0,0,0,0,0,1.6444,1.6448,1.6663,1.6664,1.6666,1.6781,1.6782,1.6784,1.6796,1.6794,1.6793,1.6791,1.691,1.6915,1.6921,0,0,0,0,0,0,0,0,0,0,0,0,0,1.6548,1.645,1.6663,1.6686,1.6689,1.678,1.6782,1.6784,1.6796,1.6794,1.6792,1.6791,1.6909,1.6915,1.6921,1.6997,0,0,1.6941,1.6944,0,0,0,0,0,0,0,0,1.6543,1.6556,1.6681,1.6684,1.6688,1.6772,1.6749,1.6856,1.6797,1.6755,1.6792,1.679,1.6867,1.6876,1.6902,1.7003,1.7008,1.6942,1.6946,1.6948,1.695,0,0,0,0,0,0,0,1.6535,1.6551,1.671,1.6683,1.6687,1.6689,1.6702,1.6769,1.682,1.6759,1.676,1.6774,1.6868,1.6896,1.6905,1.701,1.6941,1.6947,1.6951,1.6954,1.7173,1.7175,0,0,0,0,0,0,1.6524,1.6545,1.6706,1.6713,1.6609,1.6694,1.6709,1.6747,1.6819,1.6828,1.6775,1.6774,1.6886,1.6898,1.691,1.7,1.6948,1.6954,1.6958,1.7171,1.7174,1.7176,0,0,0,0,0,0,1.6519,1.6538,1.6701,1.663,1.665,1.67,1.6743,1.675,1.6778,1.6831,1.684,1.6795,1.6885,1.69,1.6974,1.7004,1.6957,1.6963,1.7169,1.7172,1.7175,1.7183,0,0,0,0,0,0,1.6513,1.6537,1.6567,1.663,1.6654,1.6765,1.6745,1.6754,1.6789,1.6789,1.6852,1.6861,1.6885,1.6965,1.6981,1.7012,1.6968,1.7167,1.717,1.7174,1.7181,1.7186,1.7191,0,0,0,0,0,1.6505,1.6566,1.6569,1.6588,1.6694,1.6767,1.6781,1.6807,1.6792,1.6822,1.6855,1.6859,1.6999,1.6972,1.699,1.7024,1.7165,1.7169,1.7174,1.7178,1.7185,1.7191,0,0,0,0,0,0,1.6507,1.6575,1.6579,1.6662,1.6708,1.6769,1.6808,1.6814,1.6866,1.6864,1.6894,1.6908,1.698,1.701,1.6979,1.7099,1.708,1.7088,1.7077,1.7084,1.7089,1.708,1.6974,0,0,0,0,0,1.6516,1.6571,1.6628,1.6695,1.6718,1.6759,1.6792,1.6808,1.6857,1.6877,1.6916,1.6963,1.7017,1.7053,1.7106,1.7185,1.7197,1.7217,1.7222,1.7226,1.7233,1.7272,1.7281,1.719,1.719,1.719,0,0,1.6538,1.6581,1.6614,1.6696,1.6734,1.6788,1.6776,1.6835,1.6874,1.6886,1.6957,1.6987,1.7042,1.7117,1.7152,1.7144,1.726,1.7232,1.7234,1.7239,1.7278,1.7286,1.7294,1.7193,1.7193,1.7192,0,0,1.6603,1.6643,1.6702,1.6739,1.6796,1.6822,1.6836,1.6895,1.6915,1.6987,1.6995,1.7042,1.7136,1.7173,1.7204,1.7278,1.7282,1.7295,1.7322,1.736,1.7367,1.7373,1.7397,1.7405,1.7301,1.7301,1.7301,0,1.6622,1.6705,1.6732,1.6789,1.6823,1.6835,1.6893,1.6928,1.6999,1.7022,1.7011,1.7126,1.7164,1.7246,1.7263,1.7289,1.7304,1.7288,1.7364,1.7371,1.7377,1.74,1.7409,1.7302,1.7302,1.7302,1.7302,0,1.6723,1.678,1.6821,1.6888,1.6927,1.6984,1.7017,1.7053,1.7065,1.7091,1.7161,1.7206,1.7266,1.7287,1.73,1.737,1.7363,1.7358,1.7339,1.7386,1.7408,1.7417,1.7303,1.7303,1.7303,1.7303,0,0,1.6795,1.6873,1.6888,1.6916,1.6978,1.7022,1.7078,1.7136,1.7165,1.7212,1.7258,1.7335,1.7329,1.7364,1.7381,1.7415,1.7466,1.7405,1.7407,1.7412,1.7541,1.7543,1.7553,1.7469,1.747,1.7472,1.7536,0,1.6866,1.6967,1.6991,1.7077,1.7127,1.7137,1.7185,1.7227,1.7252,1.7297,1.7325,1.7377,1.7368,1.7388,1.7422,1.7452,1.7492,1.7448,1.7509,1.7511,1.7494,1.7565,1.7569,1.7627,1.7545,1.7546,1.7547,0,1.6963,1.7011,1.7101,1.7152,1.7174,1.7218,1.727,1.7315,1.736,1.7376,1.7413,1.7425,1.748,1.7458,1.7534,1.7504,1.753,1.7548,1.7551,1.7557,1.7531,1.757,1.7647,1.7654,1.7561,1.756,1.7559,0,1.7002,1.7089,1.7154,1.7179,1.7241,1.727,1.7297,1.7341,1.7373,1.7419,1.7439,1.7491,1.7519,1.7558,1.7582,1.7565,1.7655,1.7636,1.7667,1.7666,1.7685,1.7683,1.7764,1.7705,1.7705,1.7704,1.7704,0,1.7077,1.7132,1.7172,1.7212,1.7271,1.7297,1.7355,1.7382,1.742,1.7463,1.7475,1.7515,1.7545,1.7589,1.7608,1.7665,1.7679,1.7691,1.7695,1.7689,1.7687,1.7706,1.7702,1.7707,1.7706,1.7706,1.7705,0,1.7132,1.7161,1.7232,1.7283,1.7297,1.7339,1.7382,1.7419,1.7443,1.7497,1.7511,1.7549,1.76,1.7627,1.7692,1.7705,1.7768,1.7771,1.7753,1.7754,1.7783,1.7779,1.7877,1.789,1.7823,1.7824,1.7825,0,1.7177,1.7219,1.7274,1.7304,1.7331,1.7379,1.7411,1.7436,1.7468,1.7521,1.7551,1.7603,1.7645,1.7726,1.7758,1.7806,1.7809,1.784,1.7816,1.7807,1.7806,1.7803,1.7805,1.7844,1.7844,1.7845,1.7845,0,1.7254,1.7265,1.7311,1.7361,1.7399,1.7439,1.7479,1.7502,1.7534,1.7569,1.7621,1.7654,1.7718,1.7768,1.7818,1.7843,1.7848,1.7852,1.7861,1.7855,1.7841,1.7846,1.7762,1.785,1.785,1.7849,1.7849,1.7849,1.7304,1.734,1.7383,1.7432,1.7465,1.7501,1.7537,1.7564,1.7608,1.7662,1.7674,1.7728,1.7768,1.7836,1.7862,1.7903,1.7897,1.7912,1.7915,1.7918,1.7917,1.7836,1.7913,1.7913,1.7913,1.7913,1.7913,0,1.7379,1.7406,1.7451,1.7506,1.7544,1.7545,1.7588,1.7619,1.7667,1.7704,1.7745,1.7802,1.785,1.7884,1.7931,1.7957,1.796,1.7969,1.7966,1.7971,1.7921,1.7907,1.7965,1.7965,1.7965,1.7965,1.7965,1.7965,1.7422,1.7481,1.7497,1.7571,1.7598,1.7651,1.7675,1.7707,1.7737,1.78,1.7839,1.7861,1.7896,1.7946,1.7988,1.7996,1.8012,1.802,1.8028,1.7981,1.7975,1.797,1.7957,1.8024,1.8024,1.8074,1.8075,1.8075]}]]